Lid_Strength_Index
0 -0 1 0 -0 0 1 1 3 5 4 2 1 -1 -1 -1 -1 -1 -1 1 2 2 1 1 1 1 1 1 0 0 0 -0 -0 -1 -1 -1 -1 -1
0 0 0 0 0 -0 0 1 1 3 5 2 1 0 -0 -0 -0 0 0 1 2 2 2 2 1 1 1 1 1 1 1 1 0 0 0 -0 -0 -1
-0 0 0 -0 0 -0 -0 -0 0 1 3 2 1 0 1 1 2 3 2 3 3 3 3 3 4 3 3 3 3 3 2 2 1 1 1 0 0 -0
1 1 1 0 0 -0 0 1 1 1 2 3 2 2 3 4 4 5 4 4 4 4 4 4 5 5 5 5 5 5 5 5 4 4 4 3 3 3
1 1 1 1 1 1 1 1 1 1 1 2 3 2 3 4 5 5 5 6 5 4 4 5 5 6 6 7 7 8 8 7 7 7 6 5 5 4
3 3 3 2 1 1 1 2 1 2 2 2 2 3 3 3 3 5 7 6 6 5 5 5 5 5 5 6 6 7 8 8 8 8 8 7 7 6
2 2 3 3 3 3 1 1 1 2 3 3 4 5 5 5 5 5 6 6 6 5 5 5 6 6 6 6 6 6 7 8 8 8 8 8 8 7
1 0 0 2 3 4 3 3 1 1 2 3 4 4 4 3 3 4 5 5 7 4 5 6 5 7 7 7 6 7 7 7 7 7 7 8 8 8
-0 -0 0 0 0 0 2 2 2 2 1 1 2 2 2 2 2 3 3 3 5 4 4 6 4 6 5 6 6 7 7 7 7 7 7 7 8 8
0 0 1 1 3 1 2 3 4 4 3 3 2 3 3 0 1 1 3 3 4 3 2 6 5 5 4 5 6 6 6 6 6 7 7 7 8 8
2 3 2 2 5 5 2 3 4 5 6 6 7 6 6 5 4 2 1 2 3 3 2 4 5 5 4 4 3 4 5 5 5 5 5 6 6 6
3 3 7 6 7 6 1 1 2 3 3 3 4 4 3 3 3 0 2 2 2 3 0 2 3 4 5 4 3 3 3 5 5 5 5 5 6 3
3 4 5 8 9 8 6 2 4 4 4 3 2 4 4 4 4 2 1 2 2 3 3 2 1 1 2 3 2 2 2 3 2 4 6 6 6 5
3 4 7 10 11 10 7 9 8 7 4 4 5 5 5 4 3 2 1 1 1 2 1 0 3 3 4 4 4 3 2 2 1 1 0 2 4 4
6 9 10 11 10 9 8 8 7 5 5 5 5 5 4 3 2 2 1 -0 0 1 2 0 2 1 3 4 5 4 4 2 1 1 1 1 1 1
8 7 7 7 8 7 7 5 5 5 5 5 4 4 3 4 4 4 4 4 3 2 1 1 1 1 3 3 3 3 2 3 1 1 1 1 -0 0
6 5 5 5 5 5 5 5 5 4 5 4 4 4 4 4 5 4 4 4 5 5 4 2 1 1 2 1 4 3 3 2 1 1 1 2 1 0
5 5 5 4 4 5 5 5 5 5 4 4 4 5 5 6 5 4 5 5 5 5 4 4 3 3 2 2 4 3 2 2 1 1 1 2 2 0
5 4 4 4 5 5 5 5 5 4 3 4 4 5 6 5 7 6 5 5 4 4 4 3 3 3 5 5 3 3 3 3 2 2 1 2 2 2
5 4 4 5 5 5 5 4 4 4 4 4 4 4 4 5 6 5 5 5 5 4 4 3 3 4 5 5 5 3 3 2 2 2 2 1 1 1
4 4 4 5 5 5 4 4 4 5 6 5 4 5 5 5 5 5 5 7 8 4 4 3 3 5 4 3 4 3 3 3 1 2 2 3 2 2
4 5 5 5 5 4 4 4 5 5 5 5 4 5 4 4 5 5 5 5 4 4 3 3 2 2 3 4 4 3 2 2 2 2 2 3 3 3
5 5 5 5 4 4 4 4 4 4 3 4 5 4 4 4 4 4 4 4 4 4 3 4 3 3 3 3 4 3 2 1 1 1 2 2 1 2